Terug naar catalogus

TDRS 10

ActiefCommunicatieGEO
NORAD 27566·PAYLOAD·🇺🇸 United States

Gelanceerd Dec 5, 2002 vanaf Cape Canaveral Space Force Station

Loading…

TLE

VersSource: Space-Track

Epoch: Sep 14, 2026, 05:06 UTC

1 27566U 02055A   26257.21259068 -.00000243  00000-0  00000-0 0  9993
2 27566  10.2644  42.3374 0012589 235.4566 120.9548  0.98864275 87074

Volg TDRS 10 in realtime met AllMySat

Download on the App Store